Weather reports worldwide

Advertisment
Lampedusa, Italy (16490): temperature & dewpoint: 14.08.2019 06:00:00 - 20.08.2019 06:00:00 (CEST)Lampedusa, Italy (16490): wind speed: 14.08.2019 06:00:00 - 20.08.2019 06:00:00 (CEST)Lampedusa, Italy (16490): wind direction: 14.08.2019 06:00:00 - 20.08.2019 06:00:00 (CEST)Lampedusa, Italy (16490): reduced air pressure: 14.08.2019 06:00:00 - 20.08.2019 06:00:00 (CEST)Lampedusa, Italy (16490): visibility: 14.08.2019 06:00:00 - 20.08.2019 06:00:00 (CEST)Lampedusa, Italy (16490): precipitation: 14.08.2019 06:00:00 - 20.08.2019 06:00:00 (CEST)
Date & Time tt [°C] td [°C] ff [km/h] ff [kn] dd ppp [hPa] vv [km] rr [mm]
20.08.2019 06:00:00 - - - - - - - -
20.08.2019 05:00:00 26,3 21,1 18 10 ESE 1015,9 - 0,0
20.08.2019 04:00:00 26,0 22,0 16 9 ESE - 10 -
20.08.2019 03:00:00 - - - - - - - -
20.08.2019 02:00:00 - - - - - - - -
20.08.2019 01:00:00 26,0 22,0 18 10 ESE - 10 -
20.08.2019 00:00:00 - - - - - - - -
19.08.2019 23:00:00 26,7 21,1 21 11 ESE 1016,8 - 0,0
19.08.2019 22:00:00 27,0 21,0 18 10 ESE - 10 -
19.08.2019 21:00:00 27,0 22,0 21 11 SE - 10 -
19.08.2019 20:00:00 27,0 22,0 21 11 ESE - 10 -
19.08.2019 19:00:00 28,0 22,0 21 11 ESE - 10 -
19.08.2019 18:00:00 28,0 22,0 22 12 SE - 10 -
19.08.2019 17:00:00 29,0 21,0 21 11 SE - 10 -
19.08.2019 16:00:00 29,0 22,0 21 11 SE - 10 -
19.08.2019 15:00:00 29,0 22,0 21 11 SE - 10 -
19.08.2019 14:00:00 - - - - - - - -
19.08.2019 13:00:00 - - - - - - - -
19.08.2019 12:00:00 29,0 22,0 21 11 SE - 10 -
19.08.2019 11:00:00 28,6 21,9 18 10 SE 1016,3 - 0,0
19.08.2019 10:00:00 28,0 21,0 18 10 SE - 10 -
19.08.2019 09:00:00 27,0 22,0 18 10 SE - 10 -
19.08.2019 08:00:00 26,9 21,7 18 10 SE 1015,4 10 -
19.08.2019 07:00:00 26,0 22,0 21 11 SE - 10 -
19.08.2019 06:00:00 26,0 22,0 18 10 SE - 10 -
19.08.2019 05:00:00 26,0 21,7 18 10 SE 1014,7 10 0,0
19.08.2019 04:00:00 26,0 22,0 21 11 SE - 10 -
19.08.2019 03:00:00 26,0 21,0 21 11 SE - 10 -
19.08.2019 02:00:00 26,0 21,0 21 11 SE - 10 -
19.08.2019 01:00:00 26,0 21,0 21 11 SE - 10 -
19.08.2019 00:00:00 26,0 21,0 22 12 SE - 10 -
18.08.2019 23:00:00 26,3 21,0 18 10 SE 1015,6 10 0,0
18.08.2019 22:00:00 26,0 22,0 18 10 SE - 10 -
18.08.2019 21:00:00 26,0 22,0 16 9 ESE - 10 -
18.08.2019 20:00:00 26,7 21,7 13 7 SE 1014,8 10 -
18.08.2019 19:00:00 28,0 22,0 13 7 SE - 10 -
18.08.2019 18:00:00 28,0 21,0 13 7 SE - 10 -
18.08.2019 17:00:00 27,8 21,9 9 5 ESE 1015,4 10 0,0
18.08.2019 16:00:00 28,0 22,0 11 6 ESE - 10 -
18.08.2019 15:00:00 28,0 22,0 11 6 SE - 10 -
18.08.2019 14:00:00 27,8 21,3 11 6 ESE 1016,5 10 -
18.08.2019 13:00:00 28,0 22,0 9 5 ESE - 10 -
18.08.2019 12:00:00 28,0 20,0 9 5 E - 10 -
18.08.2019 11:00:00 26,5 20,8 11 6 E 1016,8 10 0,0
18.08.2019 10:00:00 26,0 22,0 9 5 ENE - 10 -
18.08.2019 09:00:00 26,0 22,0 5 3 ENE - 10 -
18.08.2019 08:00:00 25,4 22,3 2 1 N 1016,2 10 -
18.08.2019 07:00:00 23,0 22,0 5 3 NW - 10 -
18.08.2019 06:00:00 23,0 22,0 8 4 NW - 10 -
18.08.2019 05:00:00 22,7 21,2 8 4 W 1015,5 10 0,0
18.08.2019 04:00:00 23,0 21,0 8 4 W - 10 -
18.08.2019 03:00:00 23,0 21,0 4 2 WSW - 10 -
18.08.2019 02:00:00 24,5 22,2 4 2 E 1016,1 10 -
18.08.2019 01:00:00 25,0 22,0 5 3 E - 10 -
18.08.2019 00:00:00 25,0 23,0 5 3 N - 10 -
17.08.2019 23:00:00 25,0 23,0 5 3 N - 10 -
17.08.2019 22:00:00 25,0 22,0 5 3 N - 10 -
17.08.2019 21:00:00 26,0 23,0 4 2 - - 10 -
17.08.2019 20:00:00 26,0 22,2 8 4 NNW 1015,7 10 -
17.08.2019 19:00:00 27,0 22,0 11 6 N - 10 -
17.08.2019 18:00:00 27,0 22,0 13 7 N - 10 -
17.08.2019 17:00:00 27,8 21,9 15 8 N 1016,2 10 0,0
17.08.2019 16:00:00 28,0 22,0 21 11 N - 10 -
17.08.2019 15:00:00 28,0 22,0 21 11 N - 10 -
17.08.2019 14:00:00 28,0 21,3 18 10 NNW 1017,0 10 -
17.08.2019 13:00:00 28,0 21,0 21 11 NNW - 10 -
17.08.2019 12:00:00 28,0 21,0 22 12 NNW - 10 -
17.08.2019 11:00:00 28,4 21,6 16 9 NW 1017,7 10 0,0
17.08.2019 10:00:00 27,0 21,0 16 9 NW - 10 -
17.08.2019 09:00:00 27,0 21,0 15 8 NW - 10 -
17.08.2019 08:00:00 26,0 21,6 11 6 NW 1016,8 10 -
17.08.2019 07:00:00 25,0 22,0 9 5 NW - 10 -
17.08.2019 06:00:00 25,0 21,0 8 4 NNW - 10 -
17.08.2019 05:00:00 25,0 21,8 8 4 NW 1016,3 10 0,0
17.08.2019 04:00:00 25,0 22,0 9 5 NNW - 10 -
17.08.2019 03:00:00 25,0 22,0 5 3 N - 10 -
17.08.2019 02:00:00 24,9 21,5 4 2 N 1016,5 10 -
17.08.2019 01:00:00 26,0 22,0 11 6 N - 10 -
17.08.2019 00:00:00 26,0 21,0 16 9 N - 10 -
16.08.2019 23:00:00 25,7 21,3 15 8 NNW 1016,6 10 0,0
16.08.2019 22:00:00 26,0 21,0 13 7 NNW - 10 -
16.08.2019 21:00:00 26,0 21,0 13 7 NNW - 10 -
16.08.2019 20:00:00 26,5 20,6 15 8 NNW 1015,8 10 -
16.08.2019 19:00:00 27,0 21,0 16 9 NNW - 10 -
16.08.2019 18:00:00 27,0 22,0 21 11 NNW - 10 -
16.08.2019 17:00:00 28,0 22,0 21 11 NNW - 10 -
16.08.2019 16:00:00 28,0 22,0 21 11 NNW - 10 -
16.08.2019 15:00:00 28,0 22,0 26 14 NNW - 10 -
16.08.2019 14:00:00 28,5 21,7 21 11 NNW 1016,8 10 -
16.08.2019 13:00:00 28,0 21,0 26 14 N - 10 -
16.08.2019 12:00:00 27,0 21,0 22 12 NNW - 10 -
16.08.2019 11:00:00 27,1 20,7 16 9 N 1017,1 10 0,0
16.08.2019 10:00:00 27,0 20,0 21 11 NNW - 10 -
16.08.2019 09:00:00 26,0 20,0 21 11 N - 10 -
16.08.2019 08:00:00 25,5 20,0 21 11 N 1016,4 10 -
16.08.2019 07:00:00 25,0 21,0 22 12 NNW - 10 -
16.08.2019 06:00:00 25,0 21,0 22 12 N - 10 -
16.08.2019 05:00:00 25,0 21,0 22 12 N - 10 -
16.08.2019 04:00:00 25,0 21,0 24 13 N - 10 -
16.08.2019 03:00:00 25,0 21,0 24 13 N - 10 -
16.08.2019 02:00:00 25,1 21,0 21 11 N 1016,1 10 -
16.08.2019 01:00:00 25,0 21,0 22 12 NNW - 10 -
16.08.2019 00:00:00 26,0 21,0 24 13 N - 10 -
15.08.2019 23:00:00 25,8 20,4 24 13 N 1016,5 10 0,0
15.08.2019 22:00:00 26,0 21,0 22 12 NNW - 10 -
15.08.2019 21:00:00 26,0 21,0 22 12 NNW - 10 -
15.08.2019 20:00:00 26,2 21,3 22 12 NNW 1015,4 10 -
15.08.2019 19:00:00 27,0 22,0 22 12 NNW - 10 -
15.08.2019 18:00:00 27,0 22,0 29 16 NNW - 10 -
15.08.2019 17:00:00 27,7 21,6 29 16 NNW 1014,9 10 0,0
15.08.2019 16:00:00 28,0 22,0 35 19 NNW - 10 -
15.08.2019 15:00:00 28,0 22,0 34 18 NNW - 10 -
15.08.2019 14:00:00 28,6 21,2 26 14 NNW 1015,6 10 -
15.08.2019 13:00:00 28,0 21,0 28 15 NNW - 10 -
15.08.2019 12:00:00 28,0 20,0 29 16 NNW - 10 -
15.08.2019 11:00:00 27,6 19,7 31 17 NNW 1015,8 10 0,0
15.08.2019 10:00:00 27,0 20,0 34 18 NNW - 10 -
15.08.2019 09:00:00 26,0 20,0 31 17 NNW - 10 -
15.08.2019 08:00:00 26,0 20,0 28 15 NNW - 10 -
15.08.2019 07:00:00 25,0 20,0 28 15 NNW - 10 -
15.08.2019 06:00:00 25,0 20,0 29 16 NNW - 10 -
15.08.2019 05:00:00 25,3 20,4 29 16 NNW 1014,1 10 0,0
15.08.2019 04:00:00 26,0 20,0 34 18 NNW - 10 -
15.08.2019 03:00:00 26,0 21,0 31 17 NNW - 10 -
15.08.2019 02:00:00 25,7 20,1 34 18 NNW 1014,8 10 -
15.08.2019 01:00:00 26,0 21,0 31 17 NNW - 10 -
15.08.2019 00:00:00 26,0 20,0 28 15 NW - 10 -
14.08.2019 23:00:00 26,0 19,8 31 17 NNW 1014,6 10 0,0
14.08.2019 22:00:00 26,0 21,0 34 18 NNW - 10 -
14.08.2019 21:00:00 26,0 20,0 34 18 NNW - 10 -
14.08.2019 20:00:00 26,4 20,0 31 17 NNW 1014,1 10 -
14.08.2019 19:00:00 27,0 18,0 34 18 NW - 10 -
14.08.2019 18:00:00 28,0 17,0 31 17 NNW - 10 -
14.08.2019 17:00:00 28,3 18,8 35 19 NNW 1014,1 10 0,0
14.08.2019 16:00:00 29,0 18,0 39 21 NNW - 10 -
14.08.2019 15:00:00 29,0 18,0 41 22 NNW - 10 -
14.08.2019 14:00:00 29,1 19,9 41 22 NNW 1014,4 10 -
14.08.2019 13:00:00 29,0 20,0 39 21 NNW - 10 -
14.08.2019 12:00:00 29,0 20,0 39 21 NNW - 10 -
14.08.2019 11:00:00 29,2 20,4 37 20 NNW 1014,3 10 0,0
14.08.2019 10:00:00 29,0 21,0 35 19 NNW - 10 -
14.08.2019 09:00:00 28,0 21,0 34 18 NNW - 10 -
14.08.2019 08:00:00 28,3 20,7 39 21 NNW 1012,8 10 -
14.08.2019 07:00:00 28,0 24,0 24 13 N - 10 -
14.08.2019 06:00:00 28,0 24,0 29 16 N - 10 -

tt = temperature
td = dewpoint
ff = wind speed
dd = wind direction
ppp = reduced air pressure
vv = visibility
rr = precipitation

Next stations